TimePST,TemperatureF,Dew PointF,Humidity,Sea Level PressureIn,VisibilityMPH,Wind Direction,Wind SpeedMPH,Gust SpeedMPH,PrecipitationIn,Events,Conditions,WindDirDegrees,DateUTC
12:54 AM,30.9,28.0,89,30.20,10.0,Calm,Calm,-,N/A,,Clear,0,2013-12-12 08:54:00
1:54 AM,30.9,28.9,92,30.21,9.0,Calm,Calm,-,N/A,,Clear,0,2013-12-12 09:54:00
2:54 AM,30.0,26.1,85,30.21,10.0,Calm,Calm,-,N/A,,Clear,0,2013-12-12 10:54:00
3:54 AM,28.0,27.0,96,30.20,10.0,Calm,Calm,-,N/A,,Clear,0,2013-12-12 11:54:00
4:54 AM,28.9,27.0,92,30.20,10.0,Calm,Calm,-,N/A,,Clear,0,2013-12-12 12:54:00
5:54 AM,33.1,28.9,85,30.21,10.0,East,4.6,-,N/A,,Clear,90,2013-12-12 13:54:00
6:54 AM,28.9,24.1,82,30.22,10.0,Variable,3.5,-,N/A,,Clear,0,2013-12-12 14:54:00
7:54 AM,28.0,25.0,88,30.23,10.0,Calm,Calm,-,N/A,,Clear,0,2013-12-12 15:54:00
8:54 AM,37.0,30.9,79,30.25,10.0,Calm,Calm,-,N/A,,Clear,0,2013-12-12 16:54:00
9:54 AM,43.0,30.9,62,30.26,10.0,SW,4.6,-,N/A,,Clear,230,2013-12-12 17:54:00
10:54 AM,46.9,30.9,54,30.25,10.0,Calm,Calm,-,N/A,,Clear,0,2013-12-12 18:54:00
11:54 AM,53.1,30.9,43,30.21,10.0,East,10.4,-,N/A,,Clear,100,2013-12-12 19:54:00
12:54 PM,55.0,32.0,42,30.19,10.0,ESE,9.2,-,N/A,,Clear,110,2013-12-12 20:54:00
1:54 PM,57.9,33.1,39,30.16,10.0,East,9.2,-,N/A,,Clear,100,2013-12-12 21:54:00
2:54 PM,55.0,36.0,49,30.15,10.0,SW,6.9,-,N/A,,Clear,220,2013-12-12 22:54:00
3:54 PM,54.0,35.1,49,30.15,10.0,SW,5.8,-,N/A,,Clear,230,2013-12-12 23:54:00
4:54 PM,46.9,37.0,68,30.17,10.0,Calm,Calm,-,N/A,,Clear,0,2013-12-13 00:54:00
5:54 PM,39.9,32.0,73,30.17,10.0,Calm,Calm,-,N/A,,Clear,0,2013-12-13 01:54:00
6:54 PM,37.0,30.9,79,30.19,10.0,Calm,Calm,-,N/A,,Clear,0,2013-12-13 02:54:00
7:54 PM,39.0,30.9,73,30.20,10.0,ESE,3.5,-,N/A,,Clear,110,2013-12-13 03:54:00
8:54 PM,37.0,30.9,79,30.21,10.0,Calm,Calm,-,N/A,,Clear,0,2013-12-13 04:54:00
9:54 PM,33.1,28.0,82,30.22,10.0,North,3.5,-,N/A,,Clear,350,2013-12-13 05:54:00
10:54 PM,33.1,30.0,89,30.23,10.0,Calm,Calm,-,N/A,,Clear,0,2013-12-13 06:54:00
11:54 PM,32.0,28.0,85,30.22,10.0,North,4.6,-,N/A,,Clear,360,2013-12-13 07:54:00